sat.trackr.live / text

‹ back to catalog

STARLINK-3324

NORAD 50814 · 2022-001M

PAYLOAD ACTIVE UNKNOWN

§ Identity

Operator
Country
US
Launch date
2022-01-06
Launch site
AFETR
Launch vehicle
Mass (kg)
RCS (m²)

Purposes: comms

External: N2YO · Heavens-Above · Gunter

§ Orbital elements

Epoch: 2026-09-19T21:33:00.540288Z

Period
94.01 min
Inclination
53.1619°
Eccentricity
0.0001124
Mean motion
15.31701592 rev/d
Perigee alt
470.0 km
Apogee alt
471.5 km
Semi-major
6,848.9 km
B*
1.1663e-5
RAAN
6.5677°
Arg perigee
74.9579°
Mean anomaly
285.1547°
Rev number
25,987

§ Raw data

STARLINK-33241 50814U 22001M   26262.89792292 -.00000003  00000+0  11663-4 0  99932 50814  53.1619   6.5677 0001124  74.9579 285.1547 15.31701592259872

JSON: /api/v1/satellites/50814 · /tle

For live sub-satellite position, see the globe view (requires WebGL).

§ Visibility from observer

Set your observer location to see the next 7 days of passes ≥ 10°. The values pass through the URL so the page stays shareable.

No JS? Fill the form by hand. The geolocation button needs JavaScript.